Vorticity
14 7 6 5 6 7 5 4 3 3 4 4 5 9 10 12 10 8 9 8 6 13
10 11 9 8 9 8 8 8 6 7 8 10 12 12 11 9 10 9 7 10 9 7
7 3 7 10 8 8 6 7 7 9 9 11 12 12 12 12 7 7 17 5 6 3
10 9 9 9 8 7 6 8 7 7 9 11 11 11 8 6 10 22 3 8 3 6
10 10 9 7 8 8 7 7 8 8 10 11 11 7 6 15 17 4 2 1 6 12
8 10 9 9 8 7 8 8 9 13 12 8 7 6 19 11 11 6 1 6 7 12
9 9 9 9 9 10 11 15 14 11 7 7 10 21 8 4 12 0 5 7 11 12
6 6 6 12 14 16 14 11 7 7 8 15 21 4 5 8 7 2 9 7 11 8
17 17 18 15 13 10 7 8 8 13 19 15 6 10 13 4 2 8 9 10 10 9
15 14 12 9 9 10 10 13 16 20 8 1 12 6 4 -0 10 10 11 9 11 12
10 9 8 9 11 13 15 18 9 1 12 13 5 3 5 6 11 10 11 11 6 11
9 11 11 12 14 15 12 11 7 14 7 4 6 6 8 12 8 11 10 6 13 15
12 11 11 15 12 9 11 13 11 2 7 5 4 9 12 9 12 9 7 12 13 11
11 13 15 11 9 8 7 4 -1 2 8 11 11 10 12 12 9 5 12 11 13 7
Height
5764 5767 5769 5770 5771 5772 5773 5773 5772 5772 5771 5768 5767 5766 5764 5763 5762 5761 5760 5757 5754 5751
5753 5757 5759 5760 5762 5763 5764 5766 5766 5764 5763 5761 5759 5758 5756 5754 5752 5751 5749 5747 5744 5741
5743 5745 5747 5750 5752 5753 5753 5754 5754 5753 5753 5751 5750 5749 5748 5746 5744 5742 5740 5738 5735 5731
5734 5735 5737 5739 5741 5742 5743 5744 5744 5743 5742 5742 5741 5740 5739 5737 5735 5734 5732 5729 5726 5722
5724 5726 5728 5730 5731 5732 5733 5733 5733 5733 5732 5731 5731 5731 5730 5728 5726 5726 5723 5720 5716 5712
5714 5717 5718 5720 5721 5722 5723 5723 5723 5723 5723 5722 5722 5722 5720 5719 5718 5716 5714 5711 5707 5702
5704 5707 5709 5710 5711 5712 5712 5713 5713 5714 5713 5714 5713 5712 5712 5711 5709 5708 5705 5702 5698 5693
5694 5697 5698 5700 5701 5702 5703 5704 5705 5705 5705 5705 5704 5705 5704 5703 5701 5699 5696 5693 5688 5684
5685 5687 5689 5691 5692 5693 5695 5695 5696 5696 5696 5696 5697 5697 5696 5694 5692 5690 5687 5683 5679 5675
5676 5678 5681 5683 5683 5685 5686 5687 5687 5688 5688 5689 5689 5688 5688 5686 5684 5681 5678 5674 5670 5666
5668 5670 5673 5674 5676 5677 5678 5679 5680 5680 5681 5681 5681 5680 5679 5677 5675 5672 5669 5665 5662 5658
5661 5663 5664 5666 5668 5669 5670 5671 5673 5673 5673 5673 5673 5672 5671 5669 5666 5663 5660 5657 5654 5650
5653 5655 5657 5658 5660 5662 5663 5664 5665 5665 5666 5665 5665 5664 5662 5660 5657 5654 5652 5649 5646 5643
5645 5647 5649 5651 5653 5654 5656 5657 5658 5658 5658 5657 5656 5655 5654 5652 5649 5647 5644 5642 5638 5635